Weather History for Baton Rouge, LA

Change the Weather History Date:

Tuesday, February 19, 2013

  Actual Average Record
Temperature  
Mean Temperature 55 °F 56 °F  
Max Temperature 66 °F 67 °F 88 °F (1922)
Min Temperature 44 °F 45 °F 24 °F (1900)
Degree Days  
Heating Degree Days 10 10  
Month to date heating degree days 176 218  
Since 1 July heating degree days 1094 1258  
Cooling Degree Days 0 1  
Month to date cooling degree days 4 17  
Year to date cooling degree days 25 30  
Growing Degree Days 6 (Base 50)    
Moisture  
Dew Point 44 °F    
Average Humidity 56    
Maximum Humidity 87    
Minimum Humidity 24    
Precipitation  
Precipitation 0.83 in 0.18 in 2.47 in (1991)
Month to date precipitation 4.90 3.53  
Year to date precipitation 19.57 9.25  
Snow  
Snow 0.00 in - - ()
Month to date snowfall 0.0  
Since 1 July snowfall 0.0  
Snow Depth 0.00 in    
Sea Level Pressure  
Sea Level Pressure 30.12 in    
Wind  
Wind Speed 9 mph (North)    
Max Wind Speed 23 mph    
Max Gust Speed 25 mph    
Visibility 9 miles    
Events Fog , Rain    
T = Trace of Precipitation, MM = Missing Value Source: NWS Daily Summary

Daily Weather History Graph

Daily Weather History Graph

Search for Another Location

Airport:

Trip Planner

Search our weather history database for the weather conditions in past years. The results will help you decide how hot, cold, wet, or windy it might be!

Date:

Astronomy

Feb. 19, 2013 Rise Set
Actual Time 6:41 AM CST 5:56 PM CST
Civil Twilight 6:16 AM CST 6:20 PM CST
Nautical Twilight 5:48 AM CST 6:48 PM CST
Astronomical Twilight 5:20 AM CST 7:16 PM CST
Moon 12:40 PM CST (2/19) 2:00 AM CST (2/19)
Length of Visible Light 12h 03m
Length of Day
11h 15m
Waxing Gibbous, 67% of the Moon is Illuminated
Feb 19
Waxing Gibbous
Feb 25
Full
Mar 4
Last Quarter
Mar 11
New
Mar 19
First Quarter

Hourly Weather History & Observations

Time (CST) Temp. Windchill Dew Point Humidity Pressure Visibility Wind Dir Wind Speed Gust Speed Precip Events Conditions
12:02 AM 60.8 °F - 59.0 °F 94% 30.00 in 0.5 mi West 12.7 mph 29.9 mph 0.36 in Fog , Rain Heavy Rain
12:09 AM 60.8 °F - 60.8 °F 100% 29.99 in 0.8 mi West 9.2 mph 20.7 mph 0.77 in Rain Heavy Rain
12:17 AM 62.6 °F - 57.2 °F 82% 29.96 in 1.8 mi WSW 11.5 mph 25.3 mph N/A Rain Rain
12:20 AM 62.6 °F - 59.0 °F 88% 29.97 in 3.0 mi WSW 11.5 mph 25.3 mph 0.94 in Rain Light Rain
12:29 AM 62.6 °F - 59.0 °F 88% 29.96 in 10.0 mi West 12.7 mph - 0.94 in   Overcast
12:53 AM 63.0 °F - 57.9 °F 84% 29.97 in 10.0 mi WSW 12.7 mph 20.7 mph 0.94 in   Overcast
1:53 AM 62.1 °F - 59.0 °F 90% 29.98 in 10.0 mi WSW 10.4 mph - 0.00 in Rain Light Rain
2:53 AM 61.0 °F - 57.9 °F 90% 30.01 in 10.0 mi NW 6.9 mph 17.3 mph 0.00 in   Overcast
3:53 AM 59.0 °F - 55.9 °F 90% 30.03 in 10.0 mi Variable 5.8 mph - N/A   Overcast
4:25 AM 57.2 °F - 55.4 °F 94% 30.04 in 10.0 mi NNW 4.6 mph - N/A   Scattered Clouds
4:53 AM 57.0 °F - 52.0 °F 83% 30.07 in 10.0 mi NNW 12.7 mph 20.7 mph N/A   Mostly Cloudy
5:25 AM 55.4 °F - 50.0 °F 82% 30.08 in 10.0 mi North 8.1 mph - N/A   Scattered Clouds
5:53 AM 54.0 °F - 48.9 °F 83% 30.10 in 10.0 mi NNW 4.6 mph - N/A   Clear
6:53 AM 51.1 °F - 43.0 °F 74% 30.15 in 10.0 mi North 8.1 mph 16.1 mph N/A   Clear
7:53 AM 52.0 °F - 44.1 °F 74% 30.17 in 10.0 mi NNE 6.9 mph - N/A   Clear
8:53 AM 54.0 °F - 43.0 °F 66% 30.20 in 10.0 mi NNE 13.8 mph 23.0 mph N/A   Clear
9:53 AM 55.9 °F - 44.1 °F 64% 30.22 in 10.0 mi NE 9.2 mph - N/A   Clear
10:53 AM 57.2 °F - 41.0 °F 55% 30.24 in 10.0 mi NNE 8.1 mph - N/A   Clear
12:53 PM 63.0 °F - 34.0 °F 34% 30.20 in 10.0 mi North 9.2 mph - N/A   Clear
1:53 PM 64.0 °F - 34.0 °F 33% 30.19 in 10.0 mi NNE 8.1 mph - N/A   Clear
2:53 PM 64.9 °F - 26.1 °F 23% 30.19 in 10.0 mi NNE 13.8 mph 21.9 mph N/A   Clear
3:53 PM 64.0 °F - 26.1 °F 24% 30.17 in 10.0 mi NNE 13.8 mph 17.3 mph N/A   Clear
4:53 PM 63.0 °F - 30.0 °F 29% 30.17 in 10.0 mi NNE 9.2 mph - N/A   Clear
6:53 PM 55.9 °F - 28.0 °F 34% 30.19 in 10.0 mi NNE 4.6 mph - N/A   Clear
7:53 PM 54.0 °F - 28.0 °F 37% 30.21 in 10.0 mi NNE 4.6 mph - N/A   Clear
8:53 PM 52.0 °F - 28.0 °F 40% 30.22 in 10.0 mi NNE 6.9 mph - N/A   Clear
9:53 PM 50.0 °F - 28.9 °F 44% 30.23 in 10.0 mi NNE 4.6 mph - N/A   Clear
10:53 PM 48.0 °F - 30.0 °F 50% 30.23 in 10.0 mi NE 6.9 mph - N/A   Clear
11:53 PM 44.1 °F 40.8 °F 30.9 °F 60% 30.24 in 10.0 mi ENE 5.8 mph - N/A   Clear